| time (UTC) | temp C | wind direction | speed KPH | gust KPH | rain 1hr cm | rain 24hr cm | rain mn cm | humidity % | barometer mb |
| 20260503013031 | 27 | 182 | 0.0 | 0.0 | 0.00 | 0.00 | 0.00 | 79 | 1013.0 |
| 20260503011518 | 27 | 182 | 0.0 | 0.0 | 0.00 | 0.00 | 0.00 | 78 | 1012.9 |
| 20260503010019 | 27 | 182 | 0.0 | 0.0 | 0.00 | 0.00 | 0.00 | 78 | 1012.8 |
| 20260503004516 | 27 | 182 | 0.0 | 0.0 | 0.00 | 0.00 | 0.00 | 77 | 1012.6 |
| 20260503003016 | 27 | 182 | 0.0 | 1.6 | 0.00 | 0.00 | 0.00 | 77 | 1012.4 |
| 20260503001516 | 28 | 182 | 0.0 | 1.6 | 0.00 | 0.00 | 0.00 | 76 | 1012.2 |
| 20260503000014 | 28 | 182 | 0.0 | 1.6 | 0.00 | 0.00 | 0.00 | 75 | 1012.1 |
| 20260502234514 | 28 | 198 | 0.0 | 1.6 | 0.00 | 0.00 | 0.00 | 74 | 1011.9 |
| 20260502233015 | 28 | 177 | 0.0 | 6.4 | 0.00 | 0.00 | 0.00 | 73 | 1011.7 |
| 20260502231518 | 29 | 221 | 1.6 | 4.8 | 0.00 | 0.00 | 0.00 | 72 | 1011.4 |
| 20260502230013 | 30 | 220 | 1.6 | 6.4 | 0.00 | 0.00 | 0.00 | 70 | 1011.2 |
| 20260502224512 | 30 | 19 | 0.0 | 6.4 | 0.00 | 0.00 | 0.00 | 71 | 1011.1 |
| 20260502223012 | 30 | 221 | 3.2 | 8.0 | 0.00 | 0.00 | 0.00 | 70 | 1011.0 |
| 20260502221511 | 30 | 181 | 1.6 | 4.8 | 0.00 | 0.00 | 0.00 | 70 | 1010.9 |
| 20260502220010 | 30 | 244 | 0.0 | 4.8 | 0.00 | 0.00 | 0.00 | 71 | 1010.9 |
| 20260502214510 | 30 | 230 | 3.2 | 8.0 | 0.00 | 0.00 | 0.00 | 69 | 1011.0 |
| 20260502213010 | 30 | 197 | 0.0 | 8.0 | 0.00 | 0.00 | 0.00 | 69 | 1010.7 |
| 20260502211509 | 30 | 233 | 4.8 | 9.7 | 0.00 | 0.00 | 0.00 | 70 | 1010.6 |
| 20260502210007 | 30 | 200 | 3.2 | 8.0 | 0.00 | 0.00 | 0.00 | 69 | 1010.5 |
| 20260502204504 | 30 | 240 | 1.6 | 11.3 | 0.00 | 0.00 | 0.00 | 72 | 1010.8 |
| 20260502203003 | 29 | 240 | 6.4 | 14.5 | 0.00 | 0.00 | 0.00 | 71 | 1011.0 |
| 20260502201503 | 29 | 194 | 4.8 | 14.5 | 0.00 | 0.00 | 0.00 | 70 | 1011.2 |
| 20260502200101 | 28 | 256 | 8.0 | 17.7 | 0.00 | 0.00 | 0.00 | 72 | 1011.2 |
| 20260502194502 | 29 | 233 | 9.7 | 19.3 | 0.00 | 0.00 | 0.00 | 72 | 1011.4 |
| 20260502193111 | 28 | 245 | 9.7 | 14.5 | 0.00 | 0.00 | 0.00 | 69 | 1011.6 |
| 20260502191609 | 28 | 247 | 9.7 | 16.1 | 0.00 | 0.00 | 0.00 | 77 | 1011.8 |
| 20260502190059 | 28 | 243 | 8.0 | 16.1 | 0.00 | 0.00 | 0.00 | 74 | 1011.9 |
| 20260502184608 | 28 | 245 | 4.8 | 19.3 | 0.00 | 0.00 | 0.00 | 72 | 1012.0 |
| 20260502183057 | 28 | 238 | 8.0 | 16.1 | 0.00 | 0.00 | 0.00 | 76 | 1012.0 |
| 20260502181558 | 28 | 244 | 11.3 | 17.7 | 0.00 | 0.00 | 0.00 | 74 | 1012.0 |
| 20260502163053 | 29 | 265 | 4.8 | 16.1 | 0.00 | 0.00 | 0.00 | 75 | 1012.3 |
| 20260502161614 | 29 | 193 | 3.2 | 11.3 | 0.00 | 0.00 | 0.00 | 76 | 1012.4 |
| 20260502160113 | 29 | 242 | 4.8 | 12.9 | 0.00 | 0.00 | 0.00 | 76 | 1012.4 |
| 20260502151549 | 28 | 167 | 4.8 | 11.3 | 0.00 | 0.00 | 0.00 | 77 | 1012.4 |
| 20260502123106 | 27 | 195 | 4.8 | 14.5 | 0.00 | 0.00 | 0.00 | 78 | 1011.5 |
| 20260502121530 | 27 | 197 | 4.8 | 11.3 | 0.00 | 0.00 | 0.00 | 79 | 1011.7 |
| 20260502114525 | 26 | 177 | 1.6 | 20.9 | 0.00 | 0.00 | 0.00 | 83 | 1011.5 |
| 20260502113024 | 26 | 261 | 3.2 | 11.3 | 0.00 | 0.00 | 0.00 | 84 | 1011.4 |
| 20260502111528 | 26 | 166 | 3.2 | 11.3 | 0.00 | 0.00 | 0.00 | 84 | 1011.5 |
| 20260502110025 | 26 | 173 | 4.8 | 11.3 | 0.00 | 0.00 | 0.00 | 83 | 1011.5 |
| 20260502104522 | 26 | 207 | 3.2 | 11.3 | 0.00 | 0.00 | 0.00 | 82 | 1011.2 |
| 20260502103023 | 26 | 219 | 4.8 | 11.3 | 0.00 | 0.00 | 0.00 | 81 | 1011.1 |
| 20260502101519 | 26 | 237 | 4.8 | 9.7 | 0.00 | 0.00 | 0.00 | 81 | 1011.0 |
| 20260502091516 | 26 | 211 | 3.2 | 9.7 | 0.00 | 0.00 | 0.00 | 81 | 1011.1 |
| 20260502071510 | 26 | 113 | 3.2 | 8.0 | 0.00 | 0.00 | 0.00 | 82 | 1011.3 |
| 20260502070008 | 26 | 188 | 3.2 | 11.3 | 0.00 | 0.00 | 0.00 | 82 | 1011.3 |
| 20260502064507 | 26 | 226 | 3.2 | 11.3 | 0.00 | 0.00 | 0.00 | 82 | 1011.2 |
| 20260502063008 | 26 | 175 | 3.2 | 12.9 | 0.00 | 0.00 | 0.00 | 82 | 1011.2 |
| 20260502061505 | 26 | 211 | 4.8 | 11.3 | 0.00 | 0.00 | 0.00 | 82 | 1011.2 |
| 20260502060006 | 26 | 169 | 4.8 | 11.3 | 0.00 | 0.00 | 0.00 | 82 | 1011.3 |
| 20260502054505 | 26 | 226 | 3.2 | 11.3 | 0.00 | 0.00 | 0.00 | 83 | 1011.4 |
| 20260502053003 | 26 | 230 | 3.2 | 9.7 | 0.00 | 0.00 | 0.00 | 83 | 1011.7 |
| 20260502051602 | 26 | 167 | 3.2 | 8.0 | 0.00 | 0.00 | 0.00 | 82 | 1011.9 |
| 20260502050100 | 26 | 234 | 3.2 | 8.0 | 0.00 | 0.00 | 0.00 | 82 | 1012.0 |
| 20260502044558 | 26 | 203 | 3.2 | 8.0 | 0.00 | 0.00 | 0.00 | 81 | 1012.1 |
| 20260502043112 | 26 | 219 | 0.0 | 8.0 | 0.00 | 0.00 | 0.00 | 81 | 1012.2 |
| 20260502041557 | 26 | 148 | 1.6 | 8.0 | 0.00 | 0.00 | 0.00 | 81 | 1012.2 |
| 20260502040104 | 26 | 220 | 1.6 | 6.4 | 0.00 | 0.00 | 0.00 | 82 | 1012.2 |
| 20260502034602 | 26 | 171 | 1.6 | 9.7 | 0.00 | 0.00 | 0.00 | 82 | 1012.1 |
| 20260502033053 | 26 | 177 | 1.6 | 6.4 | 0.00 | 0.00 | 0.00 | 82 | 1011.9 |
| 20260502031552 | 26 | 225 | 1.6 | 6.4 | 0.00 | 0.00 | 0.00 | 81 | 1012.0 |
| 20260502030051 | 26 | 188 | 1.6 | 6.4 | 0.00 | 0.00 | 0.00 | 81 | 1012.0 |
| 20260502024608 | 26 | 223 | 0.0 | 4.8 | 0.00 | 0.00 | 0.00 | 80 | 1011.9 |
| 20260502023051 | 26 | 200 | 0.0 | 6.4 | 0.00 | 0.00 | 0.00 | 79 | 1011.8 |
| 20260502021555 | 26 | 231 | 0.0 | 3.2 | 0.00 | 0.00 | 0.00 | 79 | 1011.5 |
| 20260502020051 | 26 | 190 | 0.0 | 4.8 | 0.00 | 0.00 | 0.00 | 78 | 1011.5 |
| 20260502014550 | 26 | 204 | 0.0 | 0.0 | 0.00 | 0.00 | 0.00 | 78 | 1011.4 |